User: anonymous   Login
Location: Theydon Bois
(51.6750°N, 0.1050°E)
Time: 03:38:02
(UTC+01:00)
Language:

FengYun 1-2 T - Orbit

View from above orbital plane
View from above orbital plane
View from above satellite
View from above satellite

Ground track
Ground track

The orbit data is extracted from the following two-line orbital elements,

1 20855U 90081T   18175.59262873 +.00000086 +00000-0 +74303-4 0  9997
2 20855 098.7649 203.3467 0025270 091.9505 017.1474 14.08652114428926
Epoch (UTC): 24 June 2018 14:13:23
Eccentricity: 0.0025270
inclination: 98.7649°
perigee height: 845 km
apogee height: 882 km
right ascension of ascending node: 203.3467°
argument of perigee: 91.9505°
revolutions per day: 14.08652114
mean anomaly at epoch: 17.1474°
orbit number at epoch: 42892

The dashed part of the orbit path shows where the satellite is in the earth's shadow,  

DLR